Wind_Speed
5 4 4 4 4 4 4 6 7 8 9 9 9 8 9 9 10 10 10 11 12 12 11 11 9 9 9 9 9 8 8 8 7 6 6 6 7 7 7 8 7 7 7
6 5 4 4 4 6 6 6 7 7 8 8 8 8 8 9 10 9 10 10 11 10 10 9 8 8 9 9 8 8 8 8 7 6 6 6 6 7 8 8 7 7 7
7 6 4 5 6 7 7 7 7 8 8 8 8 8 8 8 8 8 8 9 9 9 9 8 8 8 8 8 7 7 7 7 7 6 6 6 6 7 8 7 7 7 7
8 7 6 6 7 8 8 7 7 8 8 8 7 7 7 7 7 7 8 9 9 9 8 8 8 8 8 8 7 7 7 7 7 6 6 6 6 7 7 7 7 7 8
8 8 7 7 7 8 8 8 8 8 7 7 7 7 7 7 8 8 8 8 8 8 8 7 8 8 8 7 7 7 7 7 7 7 7 7 7 7 7 7 7 8 8
9 8 7 8 7 8 8 8 7 7 6 6 6 6 7 7 7 8 8 8 8 8 7 7 7 7 7 7 7 7 7 7 7 7 8 7 7 7 7 7 7 7 7
11 10 9 9 8 8 7 7 7 6 5 5 5 6 6 7 7 7 7 8 9 8 8 7 7 7 7 8 7 7 7 7 7 7 7 7 7 7 7 6 7 6 6
12 11 11 10 9 8 7 7 7 6 5 5 5 5 6 6 7 7 7 8 8 8 7 7 7 7 7 7 7 7 7 7 7 7 6 6 6 7 6 6 6 6 5
12 12 11 11 10 8 8 7 6 5 5 5 6 6 6 7 7 7 8 8 7 7 7 7 7 7 7 7 7 7 7 6 7 7 6 6 6 6 6 6 6 6 5
13 13 12 11 10 9 8 7 6 5 5 5 6 6 6 7 8 8 8 8 7 7 7 7 7 7 7 7 7 7 7 7 7 6 6 6 6 6 6 5 5 5 5
14 13 12 12 11 9 8 7 6 5 5 5 4 5 6 7 7 8 8 7 7 7 7 7 7 7 6 7 7 7 7 6 6 6 6 5 6 5 5 5 5 5 5
16 14 13 12 12 10 8 7 6 6 6 5 5 5 6 6 7 7 7 7 7 7 6 6 6 6 6 6 6 6 6 6 6 5 5 5 5 5 5 5 5 5 4
16 15 13 12 11 11 9 7 6 6 6 5 5 5 6 6 7 7 7 7 7 6 6 6 5 6 6 6 6 6 6 6 6 5 5 6 5 5 5 4 4 4 4
17 16 14 13 12 11 10 8 7 6 5 4 5 5 5 6 7 7 6 6 6 5 5 5 5 5 6 6 6 7 7 6 6 6 6 6 5 5 5 4 4 4 4
18 17 15 14 13 11 10 9 8 7 6 5 5 5 5 5 6 6 6 5 5 4 4 4 5 6 6 6 6 6 6 6 6 6 6 6 6 6 5 5 5 5 5
18 17 16 15 14 13 11 10 8 7 6 5 5 4 4 4 4 5 5 4 4 4 4 4 4 5 5 5 5 5 6 6 6 6 6 5 5 6 6 5 5 6 6
18 17 15 15 14 14 13 11 10 8 7 6 6 4 4 3 4 4 4 4 4 4 4 4 4 5 5 5 5 5 6 6 6 6 6 5 5 5 6 6 6 6 7
17 16 15 14 14 14 14 12 11 9 8 7 6 5 3 2 2 3 3 4 4 4 4 4 5 5 5 5 5 6 6 6 6 6 6 6 6 6 6 7 7 7 7
16 16 15 14 13 13 13 12 12 10 9 8 6 4 3 2 2 2 3 3 4 5 5 5 5 5 5 6 6 6 6 7 7 7 6 6 7 7 8 8 8 8 9
15 15 14 13 13 13 13 12 12 10 10 9 7 5 4 3 1 2 2 3 3 4 4 5 6 6 6 6 6 6 7 7 7 7 7 7 8 8 8 8 8 9 9
14 14 13 13 12 12 12 12 11 10 10 9 8 6 5 3 2 1 1 2 2 3 4 5 6 6 7 7 7 8 8 9 9 8 8 8 9 9 9 9 9 10 10
12 12 12 11 11 11 11 11 11 10 10 9 8 7 6 5 4 3 1 1 2 3 4 5 6 6 7 8 8 8 8 9 9 10 10 10 10 10 10 10 11 11 11
9 10 10 10 10 10 10 10 10 9 9 8 8 7 7 6 4 3 2 1 1 2 4 5 6 7 8 8 8 8 8 8 9 10 11 11 11 12 11 12 12 12 13
8 8 9 9 9 9 9 9 8 8 8 8 8 7 7 6 6 4 3 2 2 3 4 4 5 6 7 8 9 9 9 9 9 10 11 11 12 12 12 11 12 13 13
6 6 7 8 8 8 8 7 7 7 7 7 7 7 6 6 6 6 5 3 2 3 4 4 5 5 6 7 8 9 9 10 10 10 11 11 12 12 13 12 13 13 13
6 5 5 6 6 6 7 7 7 6 6 7 6 6 6 6 6 6 6 5 4 4 4 5 5 6 7 8 9 10 11 11 11 11 11 11 12 13 13 13 14 14 14
Wind_Direction
49 54 67 79 93 98 106 117 122 134 147 151 150 149 143 140 142 146 144 147 145 148 150 150 151 147 146 143 141 143 145 148 142 136 137 134 133 132 130 129 126 119 118
51 58 74 84 108 116 112 118 125 131 141 146 152 149 147 145 145 145 147 148 147 150 152 151 153 151 150 148 149 151 150 148 145 139 139 136 136 136 134 132 126 120 120
51 59 77 96 113 115 111 115 128 132 135 139 141 145 149 151 152 150 152 153 153 154 156 155 159 156 153 153 153 154 154 151 148 145 144 139 134 138 138 131 128 124 122
52 58 74 101 111 110 110 114 122 129 133 137 142 147 149 154 155 155 157 158 157 159 160 161 163 161 155 151 151 152 153 151 150 150 147 138 137 138 135 131 129 130 126
55 61 73 97 107 113 113 115 121 128 131 134 143 149 153 155 153 151 156 159 161 164 162 164 166 164 160 156 155 155 155 153 152 151 146 141 135 134 133 132 129 132 134
61 67 77 91 98 108 110 119 121 129 132 137 144 151 156 159 156 153 159 165 167 169 162 160 163 160 152 151 154 156 152 152 150 145 142 145 139 136 135 131 132 133 136
61 67 76 91 95 101 106 112 122 131 134 136 143 150 157 161 159 159 159 168 170 167 163 158 158 158 154 154 154 154 148 147 149 144 142 144 140 135 136 134 137 142 138
61 65 72 82 88 93 100 105 113 125 134 141 148 154 160 169 172 167 167 168 167 165 162 162 161 159 156 156 159 157 151 151 153 150 151 150 145 141 142 142 141 147 147
61 68 73 77 82 88 96 105 110 116 121 131 138 150 155 162 170 175 171 169 166 162 159 161 160 159 155 153 156 157 157 159 156 152 153 155 156 150 149 149 148 153 153
63 68 74 75 79 88 93 101 108 110 118 128 133 145 150 155 162 166 167 171 166 166 167 164 157 156 154 152 154 157 158 162 163 160 161 164 165 161 157 154 152 158 157
63 69 74 75 76 83 91 98 108 113 120 128 137 142 141 142 150 157 160 162 164 168 167 162 156 158 160 158 160 164 167 167 165 166 170 171 168 168 167 162 160 162 161
60 64 69 73 77 81 88 94 101 111 119 127 128 134 139 142 149 153 159 159 158 159 161 163 162 161 165 164 165 168 173 173 173 171 177 178 172 167 164 163 167 171 172
60 61 65 70 72 75 81 85 91 104 115 130 138 135 136 141 149 153 157 151 150 154 156 162 168 168 168 171 173 177 179 178 176 172 179 180 178 176 173 169 177 181 182
57 60 62 64 66 71 73 77 84 94 104 131 135 133 138 143 147 150 150 151 153 158 161 169 175 172 169 171 175 181 182 178 180 180 185 191 195 195 197 196 196 200 204
55 57 58 61 64 67 71 76 82 84 94 117 129 130 132 142 149 152 157 158 160 164 160 165 177 173 176 174 178 184 184 181 183 188 196 203 207 206 211 213 215 220 223
52 54 54 55 58 60 66 75 79 83 87 99 123 129 132 140 148 156 162 163 169 176 173 169 178 185 186 181 185 191 193 196 198 202 210 215 217 223 226 229 231 234 237
49 51 53 53 55 58 60 63 70 80 84 90 108 115 124 140 150 159 172 174 176 182 186 185 185 188 192 191 195 201 207 201 203 214 222 228 233 238 239 240 242 246 248
46 47 52 56 56 56 57 59 61 66 70 80 90 95 103 124 146 163 176 182 188 191 191 193 194 196 203 204 206 209 214 213 217 227 237 243 247 250 248 249 252 254 254
45 45 49 54 55 54 54 56 57 61 64 64 70 82 91 91 128 161 171 182 197 204 202 204 205 205 211 214 217 221 227 227 230 236 246 250 254 254 256 258 259 261 260
44 45 49 52 52 53 53 55 56 59 61 63 67 77 80 68 93 163 191 200 209 215 215 220 221 223 224 224 226 228 230 234 236 241 249 255 257 256 259 263 264 264 263
42 43 46 50 50 51 52 53 53 53 54 56 58 63 61 56 71 127 197 221 237 234 234 238 237 238 233 235 233 232 236 238 236 243 253 259 262 262 262 264 267 264 264
41 42 44 46 46 48 50 49 48 47 48 46 45 46 46 44 49 51 29 288 251 246 246 247 245 240 238 238 239 237 240 241 243 248 253 258 264 268 269 267 268 268 269
38 39 40 41 41 42 45 45 45 45 44 42 41 41 43 42 38 28 20 1 305 265 256 254 246 243 241 242 244 244 245 248 253 256 258 261 264 267 270 270 270 268 267
26 30 32 33 37 37 37 39 38 38 38 37 35 34 33 30 27 20 359 329 299 285 269 263 258 251 247 245 243 248 249 252 256 259 262 263 264 266 269 272 273 270 269
8 19 23 25 28 29 29 31 31 31 31 30 27 25 24 19 15 18 11 353 324 308 290 276 267 261 255 250 248 251 254 259 263 265 267 268 267 268 269 272 272 273 273
346 354 6 12 14 17 22 26 26 24 22 19 15 14 15 10 4 4 0 351 332 315 304 294 284 272 263 259 257 258 260 264 264 267 268 267 267 270 271 273 275 276 276
Height
5871 5869 5869 5868 5868 5868 5867 5867 5868 5869 5870 5871 5872 5873 5874 5875 5875 5876 5877 5878 5879 5881 5882 5883 5884 5885 5886 5887 5887 5888 5888 5889 5890 5890 5891 5891 5891 5892 5892 5892 5892 5892 5892
5871 5870 5869 5868 5868 5868 5868 5869 5870 5870 5871 5872 5873 5874 5875 5876 5877 5877 5878 5879 5880 5881 5882 5883 5885 5886 5887 5887 5888 5888 5889 5890 5890 5891 5891 5891 5892 5892 5892 5892 5893 5893 5893
5871 5870 5869 5869 5869 5869 5869 5870 5871 5871 5873 5873 5874 5875 5876 5877 5877 5878 5879 5880 5881 5882 5883 5884 5885 5886 5887 5888 5888 5889 5890 5890 5891 5891 5892 5892 5892 5892 5892 5893 5893 5893 5893
5871 5871 5870 5869 5869 5870 5870 5871 5872 5872 5873 5874 5875 5876 5877 5877 5878 5879 5880 5881 5882 5882 5883 5885 5886 5886 5887 5888 5889 5890 5890 5891 5891 5892 5892 5892 5893 5893 5893 5893 5893 5894 5894
5872 5872 5871 5871 5871 5870 5871 5872 5873 5873 5874 5875 5876 5876 5877 5878 5879 5879 5880 5881 5882 5883 5884 5885 5886 5887 5888 5888 5889 5890 5890 5891 5892 5892 5892 5893 5893 5893 5894 5894 5894 5894 5895
5873 5873 5872 5872 5872 5872 5873 5873 5874 5875 5875 5876 5876 5877 5878 5878 5879 5880 5881 5882 5883 5884 5884 5885 5886 5887 5888 5889 5889 5890 5890 5891 5892 5893 5893 5894 5894 5894 5894 5894 5895 5895 5895
5874 5874 5873 5873 5873 5873 5874 5875 5875 5876 5876 5877 5877 5878 5878 5879 5880 5881 5881 5882 5883 5884 5885 5886 5886 5887 5888 5889 5890 5890 5891 5892 5892 5893 5894 5894 5894 5894 5895 5895 5895 5896 5896
5876 5875 5875 5874 5874 5874 5875 5875 5876 5876 5877 5877 5877 5878 5879 5880 5881 5881 5882 5883 5884 5885 5885 5886 5887 5888 5889 5889 5890 5890 5891 5892 5893 5893 5894 5895 5895 5895 5895 5895 5896 5896 5896
5878 5877 5876 5876 5876 5876 5876 5876 5877 5877 5877 5878 5878 5878 5879 5880 5881 5881 5882 5883 5885 5885 5886 5887 5888 5889 5889 5890 5890 5891 5892 5893 5893 5894 5894 5895 5895 5895 5895 5896 5896 5896 5896
5879 5878 5878 5877 5877 5877 5877 5878 5878 5878 5878 5879 5879 5879 5879 5880 5881 5882 5883 5884 5885 5886 5887 5887 5888 5889 5890 5890 5891 5891 5892 5893 5893 5894 5895 5895 5895 5895 5895 5896 5896 5896 5896
5881 5880 5879 5879 5878 5878 5878 5878 5878 5879 5879 5880 5880 5880 5880 5880 5881 5882 5884 5885 5885 5886 5887 5888 5888 5889 5890 5890 5891 5892 5892 5893 5893 5894 5895 5895 5895 5895 5896 5896 5896 5896 5896
5883 5882 5881 5880 5880 5879 5879 5879 5879 5879 5880 5880 5880 5881 5881 5882 5882 5883 5884 5885 5886 5887 5887 5888 5888 5889 5890 5890 5891 5891 5892 5893 5893 5894 5894 5895 5895 5895 5896 5896 5896 5896 5896
5886 5885 5883 5882 5881 5881 5881 5880 5880 5880 5880 5881 5881 5882 5882 5882 5883 5884 5885 5886 5886 5887 5887 5888 5889 5889 5890 5890 5891 5891 5892 5893 5893 5894 5894 5895 5895 5896 5896 5896 5896 5896 5896
5889 5887 5886 5884 5883 5882 5882 5881 5881 5881 5881 5882 5882 5883 5883 5883 5884 5885 5886 5886 5887 5887 5887 5888 5889 5889 5890 5890 5891 5891 5892 5893 5893 5894 5894 5895 5895 5895 5896 5896 5895 5895 5895
5891 5889 5888 5887 5885 5884 5883 5883 5882 5882 5882 5882 5883 5883 5884 5884 5885 5886 5886 5887 5887 5887 5888 5889 5889 5890 5890 5890 5890 5891 5891 5892 5893 5894 5894 5894 5895 5895 5895 5895 5895 5895 5895
5893 5891 5890 5888 5887 5886 5885 5884 5884 5883 5883 5883 5883 5884 5884 5885 5885 5886 5886 5886 5887 5887 5888 5889 5889 5890 5890 5890 5891 5891 5891 5892 5892 5893 5894 5894 5894 5894 5894 5894 5894 5894 5894
5895 5894 5892 5890 5889 5888 5886 5886 5885 5884 5884 5884 5884 5885 5885 5886 5886 5886 5887 5887 5887 5888 5888 5888 5889 5889 5889 5890 5890 5890 5891 5891 5892 5893 5893 5893 5893 5893 5893 5893 5893 5893 5892
5897 5895 5894 5892 5891 5889 5888 5887 5886 5886 5886 5886 5885 5886 5886 5886 5886 5886 5887 5887 5887 5888 5888 5888 5889 5889 5889 5889 5890 5890 5890 5891 5891 5892 5892 5892 5892 5892 5892 5892 5891 5891 5891
5899 5897 5896 5894 5893 5891 5890 5889 5888 5887 5887 5886 5886 5886 5886 5886 5886 5886 5886 5887 5887 5887 5887 5887 5888 5888 5888 5889 5889 5889 5889 5890 5890 5890 5891 5890 5890 5890 5890 5890 5889 5889 5889
5901 5900 5898 5896 5895 5893 5892 5890 5889 5888 5888 5887 5887 5886 5886 5886 5886 5885 5886 5886 5886 5886 5886 5887 5886 5887 5887 5888 5888 5888 5888 5888 5889 5889 5889 5889 5889 5888 5888 5888 5888 5887 5887
5903 5901 5900 5898 5897 5895 5894 5892 5891 5890 5889 5888 5887 5887 5886 5886 5885 5885 5885 5885 5885 5885 5885 5885 5885 5885 5886 5886 5886 5887 5887 5887 5887 5887 5887 5887 5887 5886 5886 5886 5885 5885 5884
5904 5903 5901 5900 5898 5897 5895 5894 5892 5891 5890 5889 5888 5887 5887 5886 5885 5885 5885 5884 5884 5884 5884 5884 5884 5884 5884 5884 5884 5885 5885 5886 5886 5886 5885 5885 5885 5885 5884 5883 5883 5882 5882
5906 5904 5903 5901 5900 5898 5897 5895 5894 5893 5891 5890 5889 5888 5887 5886 5885 5885 5884 5884 5883 5883 5883 5883 5882 5882 5882 5883 5883 5883 5883 5883 5883 5884 5883 5883 5882 5882 5881 5881 5880 5879 5879
5906 5905 5904 5902 5901 5899 5898 5896 5895 5893 5892 5891 5890 5889 5887 5886 5885 5884 5884 5883 5883 5882 5882 5881 5881 5881 5880 5880 5881 5881 5881 5881 5881 5881 5881 5880 5880 5879 5878 5878 5877 5876 5876
5906 5905 5904 5902 5901 5899 5898 5897 5895 5894 5893 5891 5890 5889 5888 5887 5885 5884 5883 5882 5882 5881 5880 5880 5880 5879 5879 5879 5879 5879 5879 5879 5879 5879 5878 5878 5877 5876 5875 5875 5874 5873 5872
5905 5904 5903 5902 5900 5899 5898 5896 5895 5894 5893 5891 5890 5889 5888 5886 5885 5884 5883 5882 5881 5880 5879 5878 5878 5877 5877 5877 5877 5876 5876 5876 5876 5875 5875 5874 5874 5873 5872 5872 5871 5870 5869